Location: Big Stump Grove
(36.7169°N, 118.9693°W)
Time: 01:07:56
(UTC+00:00)

Daily predictions for brighter satellites

Satellite Brightness Start Highest point End
(mag) Time Altitude Azimuth Time Altitude Azimuth Time Altitude Azimuth
STARLINK-1210 4.2 03:25:58 10° SSW 03:29:42 34° SE 03:33:28 10° ENE
STARLINK-1164 3.7 03:26:21 10° NW 03:30:29 72° NE 03:34:36 10° SE
Resurs 01 Rocket 3.3 03:30:34 10° ESE 03:33:36 18° ENE 03:36:38 10° NNE
STARLINK-1219 4.1 03:30:49 10° SSW 03:34:39 38° SE 03:38:31 10° ENE
Cosmos 44 4.3 03:30:26 10° NW 03:34:58 46° WSW 03:39:44 10° S
STARLINK-1182 3.7 03:31:19 10° NW 03:35:28 79° NE 03:39:36 10° SE
MOS 1 Rocket 3.3 03:33:16 10° NNE 03:37:37 52° E 03:41:47 10° S
STARLINK-1211 4.0 03:35:41 10° SSW 03:39:36 43° SE 03:43:32 10° ENE
SPOT 3 Rocket 4.2 03:35:21 10° SE 03:40:04 39° ENE 03:44:49 10° N
STARLINK-1163 3.6 03:36:17 10° NW 03:40:26 88° NE 03:44:34 10° SE
STARLINK-1245 3.8 03:40:36 10° SSW 03:44:35 48° SE 03:48:34 10° ENE
NOSS 2-3 (E) 4.2 03:41:42 10° S 03:45:25 33° ESE 03:49:28 10° NE
STARLINK-1172 3.6 03:41:16 10° NW 03:45:26 84° SW 03:49:29 10° SE
Cosmos 1844 3.7 03:42:38 10° SSW 03:48:13 74° ESE 03:53:55 10° NNE
STARLINK-1233 3.7 03:45:30 10° SSW 03:49:31 53° SE 03:53:34 10° NE
STARLINK-1145 3.7 03:46:15 10° NW 03:50:23 76° SW 03:54:15 12° SE
Cosmos 1703 Rocket 4.3 03:47:24 10° SSE 03:51:14 31° E 03:55:04 10° NNE
Cosmos 1743 4.0 03:48:27 10° NNE 03:51:34 24° ENE 03:54:10 13° SE
H-2A R/B 2.7 03:47:14 10° S 03:52:04 55° W 03:57:04 10° NNW
Meteor 1-27 Rocket 4.5 03:48:00 10° SSW 03:53:49 60° W 03:59:37 10° N
STARLINK-1204 3.6 03:50:26 10° SSW 03:54:30 60° SE 03:58:35 10° NE
BREEZE M DEB (TANK) 1.9 03:51:50 10° NW 03:55:12 77° NE 03:56:52 16° ESE
STARLINK-1161 3.8 03:51:13 10° NW 03:55:19 68° SW 03:59:00 13° SE
CZ-2C R/B 4.0 03:50:17 10° S 03:55:24 52° W 04:00:50 10° NNW
Cosmos 2034 Rocket 4.2 03:51:54 10° N 03:57:54 51° E 04:03:51 10° SSE
STARLINK-1238 3.5 03:55:21 10° SW 03:59:26 67° SE 04:03:33 10° NE
STARLINK-1160 3.9 03:56:12 10° NW 04:00:18 61° SW 04:03:47 14° SSE
Cosmos 389 Rocket 2.6 04:00:10 10° S 04:03:29 50° E 04:06:51 10° NNE
STARLINK-1201 3.5 04:00:19 10° SW 04:04:25 76° SE 04:08:33 10° NE
STARLINK-1170 4.1 04:01:13 10° NW 04:05:15 54° SW 04:08:34 15° SSE
NOSS 2-3 (D) 3.7 04:01:17 10° SSW 04:05:17 49° ESE 04:09:41 10° NE
Cosmos 1607 4.1 03:58:58 10° NNW 04:05:23 74° ENE 04:10:57 14° SE
Cosmos 1908 Rocket 3.9 04:04:00 10° N 04:08:19 48° E 04:11:47 15° SSE
Cosmos 1513 Rocket 4.5 04:02:28 10° N 04:08:34 88° W 04:14:42 10° S
Cosmos 1371 Rocket 4.3 04:03:43 10° S 04:08:44 47° ESE 04:13:44 10° NNE
STARLINK-1206 3.5 04:05:16 10° SW 04:09:23 84° SE 04:13:33 10° NE
Cosmos 1975 4.3 04:06:26 10° NNE 04:09:34 21° ENE 04:11:15 17° ESE
STARLINK-1150 4.3 04:06:14 10° WNW 04:10:14 48° SW 04:13:22 15° SSE
STARLINK-1205 3.6 04:10:14 10° SW 04:14:22 88° NW 04:18:31 10° NE
Resurs 1-3 3.6 04:10:29 12° SSE 04:14:31 77° ENE 04:18:55 10° N
Okean 1 3.3 04:10:53 10° S 04:14:51 63° E 04:18:52 10° NNE
STARLINK-1151 4.4 04:11:16 10° WNW 04:15:12 43° SW 04:18:09 16° SSE
USA 229 DEB 4.0 04:09:10 10° SW 04:15:36 69° NW 04:22:21 10° NNE
USA 229 4.0 04:09:17 10° SW 04:15:43 70° NW 04:22:27 10° NNE
DMSP B5D2-2 4.5 04:13:44 10° N 04:18:59 69° WNW 04:24:12 10° SSW
Cosmos 2251 Rocket 4.0 04:14:01 10° NNW 04:19:10 59° WSW 04:24:17 10° S
STARLINK-1218 3.7 04:15:12 10° SW 04:19:20 80° NW 04:23:29 10° NE
Cosmos 1464 Rocket 4.3 04:14:14 10° N 04:20:35 73° W 04:26:55 10° S
STARLINK-1155 4.4 04:18:34 10° NW 04:22:31 42° NE 04:25:00 20° E
Cosmos 2242 Rocket 3.9 04:18:39 10° SSW 04:23:02 67° W 04:27:25 10° N
NOSS 3-1 (C) 4.2 04:18:30 10° SW 04:23:42 51° NW 04:29:38 10° NNE
Cosmos 1356 4.3 04:21:07 10° NNE 04:24:15 33° ENE 04:25:19 26° ESE
STARLINK-1254 3.9 04:20:12 10° SW 04:24:19 72° NW 04:28:27 10° NE
NOSS 3-1 (A) 3.2 04:19:31 10° SSW 04:24:49 85° WNW 04:30:54 10° NNE
STARLINK-1166 4.2 04:23:30 10° NW 04:27:30 46° NE 04:29:47 23° ESE
Cosmos 2082 Rocket 4.4 04:26:27 10° NNE 04:28:27 12° NE 04:30:27 10° ENE
Spot 2 Rocket 4.3 04:26:03 21° ESE 04:28:40 35° ENE 04:33:13 10° N
STARLINK-1231 4.0 04:25:13 10° WSW 04:29:19 65° NW 04:33:26 10° NE
STARLINK-1165 4.1 04:28:27 10° NW 04:32:30 51° NE 04:34:34 26° ESE
STARLINK-1232 4.2 04:30:14 10° WSW 04:34:18 58° NW 04:38:24 10° NE
NOSS 2-3 (C) 3.7 04:31:51 10° SW 04:35:59 73° WNW 04:40:41 10° NNE
Cosmos 1833 Rocket 4.2 04:32:48 10° N 04:37:04 22° ENE 04:39:38 16° E
Cosmos 2056 Rocket 3.3 04:32:14 10° S 04:37:19 76° ESE 04:42:26 10° NNE
STARLINK-1169 3.9 04:33:24 10° NW 04:37:30 56° NE 04:39:21 29° ESE
SEDSat Delta rocket 4.2 04:31:08 10° W 04:37:44 54° S 04:41:33 24° ESE
STARLINK-1208 4.4 04:35:14 10° WSW 04:39:16 53° NW 04:43:20 10° NE
Cosmos 1634 Rocket 4.4 04:33:37 10° N 04:39:43 48° E 04:43:07 25° SE
STARLINK-1178 3.8 04:38:21 10° NW 04:42:28 62° NE 04:44:08 33° ESE
Cosmos 1515 3.5 04:40:17 23° S 04:42:37 82° E 04:46:26 10° N
CZ-2C R/B 3.9 04:37:50 10° N 04:43:09 45° WNW 04:48:28 10° SW
Cosmos 44 Rocket 3.4 04:38:32 10° NNW 04:43:26 75° WSW 04:46:07 27° SSE
H-2A R/B 3.4 04:40:49 10° SW 04:43:34 22° S 04:44:24 21° SSE
Meteor 2-9 Rocket 4.2 04:39:34 10° N 04:44:53 57° E 04:47:25 29° SE
BREEZE M DEB (TANK) 3.5 04:34:32 10° SW 04:45:03 89° NNW 04:48:16 10° NE
STARLINK-1120 3.7 04:43:19 10° NW 04:47:28 69° NE 04:48:55 38° ESE
IGS 5A 4.1 04:46:28 33° ESE 04:47:33 40° ENE 04:51:27 10° N
CREW DRAGON DEMO-1 DEB 4.3 04:45:46 10° NNW 04:48:30 28° NNE 04:49:11 25° ENE
STARLINK-1087 4.2 04:48:07 10° NNW 04:49:07 21° N 04:49:07 21° N
Tsikada Rocket 4.3 04:44:56 10° SSW 04:51:08 68° W 04:57:18 10° N
Okean 3 3.7 04:50:20 38° SE 04:51:28 49° E 04:55:38 10° NNE
STARLINK-1157 3.3 04:49:05 10° NW 04:52:21 54° SW 04:52:50 48° S
STARLINK-1131 3.6 04:48:17 10° NW 04:52:25 77° NE 04:53:41 43° ESE
Terra 3.5 04:52:55 17° E 04:53:52 18° ENE 04:57:03 10° NNE
Meteor 1-19 Rocket 4.4 04:50:34 10° SSW 04:56:05 74° W 05:01:48 10° N
Lacrosse 5 4.2 04:54:03 10° N 04:56:57 15° NNE 04:59:50 10° ENE
STARLINK-1190 3.5 04:53:13 10° NW 04:57:23 85° NE 04:58:26 49° SE
H-2A ROCKET BODY 4.4 04:56:46 25° SE 04:57:44 26° SE 05:15:33 10° E
Cosmos 2278 Rocket 2.1 04:52:22 10° SSW 04:57:56 72° ESE 05:03:36 10° NNE
Meteor 1-4 Rocket 2.5 04:57:44 36° SSW 04:58:59 72° W 05:02:26 10° N
Cosmos 1300 Rocket 4.5 04:55:19 10° NNE 04:59:18 32° ENE 04:59:45 31° E
USA 245 3.2 04:59:09 52° SE 04:59:47 63° ENE 05:03:04 10° N
Okean 1-7 4.2 04:56:24 10° SSW 05:00:27 41° W 05:04:31 10° N
STARLINK-1129 3.5 04:58:13 10° NW 05:02:23 87° SW 05:03:15 55° SE
Cosmos 2221 Rocket 3.6 05:01:47 43° SSE 05:03:04 64° E 05:07:33 10° NNE
Hubble Space Telescope 2.2 04:59:46 10° WSW 05:02:12 23° SSW 05:02:12 23° SSW
STARLINK-1134 3.5 05:03:14 10° NW 05:07:23 79° SW 05:08:03 60° SSE
Cosmos 1452 Rocket 3.7 05:07:10 41° SE 05:08:16 48° ESE 05:13:21 10° NNE
Resurs 01 Rocket 2.9 05:07:05 19° SSW 05:09:46 37° W 05:13:55 10° NNW
STARLINK-1135 3.5 05:08:11 10° NW 05:12:18 71° SW 05:12:48 62° S
Cosmos 371 Rocket 3.4 05:12:57 50° SE 05:13:31 53° ESE 05:18:15 10° NNE
Cosmos 1420 Rocket 3.9 05:11:47 28° SSW 05:14:38 84° ESE 05:19:52 10° NNE
ERBS 2.6 05:15:14 43° WSW 05:16:05 63° NW 05:19:22 10° NE
Meteor 1-12 Rocket 4.4 05:10:31 10° N 05:16:05 58° E 05:17:35 44° SE
Cosmos 407 Rocket 3.8 05:11:33 10° NNW 05:16:50 64° WSW 05:18:56 36° S
STARLINK-1141 3.6 05:13:12 10° NW 05:17:18 63° SW 05:17:36 60° SSW
Sich 1 Rocket 3.7 05:15:41 10° N 05:20:16 73° W 05:21:29 47° SSW
STARLINK-1140 3.8 05:18:10 10° NW 05:22:14 56° SW 05:22:22 56° SW
Cosmos 1544 4.0 05:21:47 10° NNW 05:25:13 39° W 05:25:44 37° WSW
STARLINK-1138 4.3 05:27:44 41° NE 05:27:44 41° NE 05:30:30 10° NE
Intercosmos 24 3.9 05:22:52 10° N 05:26:00 59° NE 05:26:00 59° NE
SPOT 1/Viking Rocket 3.5 05:25:39 51° S 05:27:02 88° WSW 05:32:13 10° NNW
STARLINK-1156 4.0 05:23:12 10° WNW 05:27:10 50° SW 05:27:10 50° SW
SL-4 R/B 4.1 05:25:58 10° NNE 05:26:43 12° NE 05:26:43 12° NE
SPOT 5 3.1 05:28:35 53° ESE 05:29:21 60° ENE 05:34:32 10° N
STARLINK-1203 3.7 05:30:06 69° NE 05:30:06 69° NE 05:33:50 10° NE
Meteor 1-13 Rocket 4.1 05:28:56 43° S 05:30:51 88° E 05:36:31 10° N
STARLINK-1143 4.2 05:32:32 46° NE 05:32:32 46° NE 05:35:30 10° NE
STARLINK-1148 4.3 05:28:13 10° WNW 05:31:56 44° WSW 05:31:56 44° WSW
Meteor 2-4 Rocket 4.2 05:29:06 22° SSW 05:32:30 55° W 05:37:46 10° N
Meteor 1-23 Rocket 4.5 05:32:11 46° ESE 05:32:38 47° E 05:38:04 10° NNE
Cosmos 724 4.4 05:28:47 10° NW 05:34:40 69° WSW 05:36:16 48° S
COSMOS 2406 3.2 05:29:09 10° NNW 05:34:55 79° WSW 05:36:21 52° S
STARLINK-1241 4.1 05:37:14 53° NE 05:37:14 53° NE 05:40:28 10° NE
Okean 2 Rocket 3.0 05:32:25 10° N 05:36:51 79° W 05:37:06 75° SW
Cosmos 2142 Rocket 4.5 05:31:42 10° N 05:37:50 78° W 05:39:56 44° S
STARLINK-1088 4.5 05:35:31 10° NW 05:39:27 41° NE 05:39:34 41° NE
STARLINK-1239 4.0 05:42:00 57° NNE 05:42:00 57° NNE 05:45:26 10° NE
STARLINK-1115 4.4 05:40:27 10° NW 05:44:20 44° NNE 05:44:20 44° NNE
ISS -0.8 05:43:48 10° N 05:45:02 12° NNE 05:45:56 11° NE
STARLINK-1240 4.0 05:46:47 60° N 05:46:47 60° N 05:50:24 10° NE
STARLINK-1076 4.3 05:45:24 10° NW 05:49:07 48° NNE 05:49:07 48° NNE
Cosmos 1140 Rocket 4.3 05:44:49 10° NNW 05:49:41 41° WSW 05:50:48 36° SW
Cosmos 2151 Rocket 3.6 05:45:26 10° N 05:49:50 82° NW 05:49:50 82° NW
STARLINK-1216 4.1 05:51:32 59° NNW 05:51:32 59° NNW 05:55:22 10° NE
Okean 1 Rocket 4.0 05:49:22 10° N 05:52:48 39° NE 05:52:48 39° NE
Cosmos 2297 3.8 05:54:46 57° E 05:54:46 57° E 05:59:59 10° NNE
STARLINK-1092 4.3 05:50:20 10° NW 05:53:53 50° N 05:53:53 50° N
Cosmos 972 Rocket 4.3 05:55:29 64° SE 05:55:55 66° ESE 06:02:20 10° NNE
STARLINK-1237 4.2 05:56:18 55° NW 05:56:18 55° NW 06:00:19 10° NE
Nadezhda 4 Rocket 3.8 05:56:18 64° SSE 05:57:11 75° E 06:03:19 10° N
STARLINK-1080 4.4 05:55:20 10° NW 05:58:42 50° N 05:58:42 50° N
Cosmos 1850 Rocket 4.3 05:54:44 10° N 06:00:00 56° ENE 06:00:01 56° ENE
ATLAS 3B CENTAUR R/B 4.2 05:52:24 10° SW 05:57:22 23° SSW 05:57:22 23° SSW
ERS-1 Rocket 3.3 06:00:26 53° WSW 06:00:53 55° W 06:05:50 10° NNW
STARLINK-1202 4.4 06:01:04 49° NW 06:01:15 50° NW 06:05:17 10° NE
Cosmos 304 Rocket 4.1 06:02:23 57° NE 06:02:23 57° NE 06:06:15 10° NNE
Cosmos 1110 Rocket 4.4 06:04:26 50° ENE 06:04:26 50° ENE 06:08:34 10° NNE
STARLINK-1090 4.5 06:00:17 10° NW 06:03:29 49° NNW 06:03:29 49° NNW
Cosmos 332 Rocket 4.2 06:05:52 56° W 06:06:22 60° WNW 06:11:15 10° N
SeaSat 1 2.5 06:02:48 10° NNE 06:07:08 68° NE 06:07:08 68° NE
Cosmos 1437 Rocket 4.1 06:09:10 36° NW 06:09:10 36° NW 06:12:00 10° N
Cosmos 2082 Rocket 2.1 06:07:41 10° NNW 06:13:26 82° ENE 06:13:32 81° E
Cosmos 1833 Rocket 3.1 06:15:50 10° NNW 06:21:14 50° WSW 06:21:20 50° WSW
Cosmos 2369 Rocket 3.7 06:25:59 24° ENE 06:25:59 24° ENE 06:28:45 10° NE
Cosmos 1331 Rocket 4.2 06:27:44 63° NNE 06:27:44 63° NNE 06:32:03 10° NNE
Meteor 1-15 Rocket 4.3 06:22:28 10° NNW 06:28:22 70° W 06:28:36 70° WSW
Terra 2.8 06:31:48 41° W 06:31:48 41° W 06:35:46 10° NNW
Cosmos 1943 Rocket 3.0 06:34:59 39° ENE 06:34:59 39° ENE 06:38:45 10° NNE
Cosmos 1092 Rocket 3.8 06:35:26 85° WSW 06:35:33 86° W 06:41:43 10° N
Lacrosse 5 2.4 06:35:45 10° NW 06:39:54 55° N 06:39:54 55° N
ATLAS 2AS CENTAUR R/B 4.0 06:45:27 30° E 06:45:27 30° E 06:50:53 10° NE
Cosmos 1627 Rocket 4.4 06:44:35 85° ENE 06:44:35 85° ENE 06:50:52 10° N
Thor Agena Rocket 3.9 06:46:18 10° N 06:51:03 63° NW 06:51:03 63° NW
Meteor 2-13 Rocket 4.4 06:53:00 76° NE 06:53:00 76° NE 06:58:44 10° N
FALCON 9 R/B 4.2 07:32:38 27° E 07:32:38 27° E 07:38:22 10° E
Cosmos 1553 Rocket 4.1 07:23:02 10° N 07:28:45 74° N 07:28:45 74° N
USA 215 3.2 07:42:23 80° WNW 07:42:23 80° WNW 07:48:35 10° NW
Aureole 3 Rocket 4.4 07:42:06 10° NNW 07:47:33 60° W 07:47:33 60° W
Cosmos 2266 Rocket 4.1 07:58:58 69° N 07:58:58 69° N 08:04:18 10° N
Cosmos 968 Rocket 4.4 07:54:24 10° NNW 07:57:58 45° N 07:57:58 45° N
NOSS 3-2 (C) 4.3 07:54:03 10° NNW 08:01:47 64° NE 08:04:01 49° ESE
NOSS 3-4 (A) 3.6 08:07:07 66° NNE 08:07:07 66° NNE 08:12:27 10° NNE
NOSS 3-4 (C) 3.6 08:07:14 66° NNE 08:07:14 66° NNE 08:12:33 10° NNE
Cosmos 2369 Rocket 3.4 08:07:45 34° WNW 08:07:45 34° WNW 08:12:53 10° N
CZ-2D R/B 4.4 08:13:36 10° ENE 08:15:32 13° E 08:15:32 13° E
Cosmos 2098 Rocket 4.1 08:16:44 82° NNE 08:16:44 82° NNE 08:23:40 10° N
ATLAS 3B R/B 4.1 08:10:27 10° NNW 08:16:31 33° NE 08:21:15 16° ESE
Cosmos 1943 Rocket 4.1 08:16:29 19° WNW 08:17:25 20° NW 08:21:28 10° N
CENTAUR R/B 3.3 08:12:19 10° NNW 08:20:37 72° ENE 08:23:12 50° ESE
Meteor 2-5 Rocket 4.2 08:25:08 54° NE 08:25:08 54° NE 08:29:35 10° NNE
Resurs 1-4 Rocket 4.1 08:21:33 10° NE 08:24:31 17° E 08:24:31 17° E
ATLAS 2AS CENTAUR R/B 3.4 08:32:51 47° W 08:34:41 57° NW 08:42:32 10° NNE
Cosmos 2315 Rocket 4.1 08:30:51 10° N 08:36:24 68° NW 08:36:24 68° NW
VEP-3 4.4 08:46:29 44° SSE 08:46:29 44° SSE 09:14:30 10° ESE
SL-4 R/B 3.6 08:46:57 40° N 08:46:57 40° N 08:50:39 10° NE
COSMOS 2455 3.1 08:47:15 58° NW 08:47:15 58° NW 08:52:58 10° NNE
NOSS 3-2 (A) 4.4 08:39:59 10° NW 08:46:57 49° WSW 08:46:57 49° WSW
Nadezhda 2 Rocket 4.5 08:48:17 72° NW 08:48:17 72° NW 08:53:57 10° N
CZ-4C R/B 4.4 08:51:25 10° E 08:51:25 10° E 08:51:55 10° E
ATLAS CENTAUR R/B 3.1 08:57:43 31° N 08:57:43 31° N 09:00:20 10° NNE
Meteor 2-16 Rocket 4.3 09:08:13 88° ESE 09:08:14 88° E 09:14:23 10° N
CZ-4B R/B 4.5 09:10:07 10° NNE 09:14:56 38° E 09:14:58 38° E
RESURS DK-1 3.9 09:18:40 34° N 09:18:40 34° N 09:21:15 10° NNE
Cosmos 2297 Rocket 4.1 09:15:24 10° N 09:20:03 26° ENE 09:24:41 10° ESE
Cosmos 1777 Rocket 4.3 09:18:37 10° NNW 09:22:56 60° NW 09:22:56 60° NW
Cosmos 1356 Rocket 4.4 09:23:22 10° N 09:26:27 45° NNE 09:26:27 45° NNE
Nadezhda 1 Rocket 3.9 09:21:44 10° N 09:27:56 79° E 09:28:50 65° SSE
CZ-4C R/B 4.3 09:29:19 49° NNE 09:29:19 49° NNE 09:32:37 10° N
IRS-1D 4.4 09:31:51 10° NNE 09:36:51 40° E 09:37:40 37° ESE
SL-16 R/B 2.4 09:41:27 55° SSE 09:42:56 85° ENE 09:49:08 10° NNW
Cosmos 1763 Rocket 4.0 09:43:52 46° ESE 09:44:19 47° ESE 09:49:12 10° NNE
Cosmos 1758 Rocket 4.2 09:45:10 48° E 09:45:10 48° E 09:49:14 10° NNE
Timation 2 Rocket 3.8 09:42:09 10° NNW 09:48:24 72° WSW 09:49:02 66° SSW
Meteor 2-1 Rocket 4.2 09:43:17 10° N 09:48:49 78° E 09:49:50 59° SSE
Cosmos 1697 Rocket 3.4 09:51:53 38° SE 09:53:10 44° ESE 09:58:29 10° NE
Cosmos 2227 Rocket 3.3 09:50:31 10° N 09:55:56 43° ENE 10:01:17 10° SE
CZ-2D R/B 2.1 09:51:21 10° N 09:56:32 63° WNW 09:56:52 61° W
Cosmos 1745 Rocket 4.3 09:56:04 46° W 09:56:42 47° W 10:02:36 10° N
ADEOS II 2.7 09:52:20 10° NNE 09:57:25 47° E 09:58:49 38° SE
USA 81 3.9 09:59:41 70° SW 10:00:05 75° W 10:05:23 10° N
BREEZE-M DEB (TANK) 4.1 09:56:59 10° NW 10:01:15 83° SW 10:14:19 10° SE
SJ 16-02 2.3 09:57:50 10° N 10:02:06 45° ENE 10:03:50 30° ESE
STARLINK-1338 4.5 10:04:45 37° N 10:04:45 37° N 10:07:19 10° NE
Resurs 1-4 Rocket 2.4 09:59:58 10° N 10:05:04 51° WNW 10:05:35 49° W
ARIANE 5 R/B 3.8 10:01:57 10° NNE 10:06:31 33° E 10:08:36 24° SE
ATLAS 3B R/B 2.9 10:00:47 10° NW 10:07:23 50° WSW 10:08:24 47° SW
STARLINK-1371 4.4 10:08:44 37° N 10:08:44 37° N 10:11:29 10° NE
OceanSat 1 rocket 4.4 10:03:30 10° N 10:08:17 82° WNW 10:08:43 73° SW
Cosmos 2181 Rocket 4.4 10:03:47 10° N 10:10:11 64° E 10:14:24 22° SSE
STARLINK-1341 4.4 10:10:44 36° NNW 10:10:44 36° NNW 10:13:33 10° NNE
CENTAUR R/B 4.2 10:04:10 10° NW 10:10:19 27° WSW 10:10:19 27° WSW
STARLINK-1374 4.4 10:12:47 36° NNW 10:12:47 36° NNW 10:15:41 10° NNE
Cosmos 1898 Rocket 4.2 10:08:07 10° N 10:13:21 54° ENE 10:17:52 13° SE
Cosmos 468 Rocket 3.8 10:13:04 62° SW 10:13:48 73° WNW 10:18:55 10° NNE
STARLINK-1339 4.4 10:14:49 35° NNW 10:14:49 35° NNW 10:17:47 10° NNE
NPP 4.0 10:09:24 10° N 10:14:35 50° WNW 10:15:27 45° WSW
STARLINK-1377 4.5 10:16:54 34° NNW 10:16:54 34° NNW 10:19:56 10° NNE
Cosmos 1656 3.8 10:15:30 49° WSW 10:16:43 61° WNW 10:22:19 10° NNE
Cosmos 1570 Rocket 4.4 10:15:11 41° SSE 10:16:50 59° ESE 10:22:03 10° NNE
Cosmos 1328 3.7 10:17:08 83° ESE 10:17:10 83° E 10:21:10 10° N
Meteor 1-21 Rocket 4.4 10:18:59 47° WSW 10:19:58 53° WNW 10:25:29 10° N
OAO 1 4.4 10:19:17 49° WSW 10:20:40 69° S 10:26:09 10° ESE
IDEFIX/ARIANE 42P 4.4 10:17:56 10° NE 10:22:12 24° E 10:26:24 10° SSE
Cosmos 1937 Rocket 4.5 10:17:59 10° N 10:23:02 47° ENE 10:28:06 10° SE
Cosmos 2369 3.6 10:25:38 44° SSW 10:27:33 84° ESE 10:33:13 10° NNE
Meteor 2-10 Rocket 3.5 10:25:04 10° NNW 10:30:16 62° W 10:31:31 47° SSW
Cosmos 2360 4.4 10:28:31 35° S 10:30:53 66° ESE 10:36:32 10° NNE
Cosmos 1814 Rocket 4.3 10:32:16 32° S 10:34:39 64° ESE 10:39:56 10° NNE
CZ-4C R/B 2.0 10:36:36 44° SW 10:38:06 71° WNW 10:43:43 10° NNE
ATLAS CENTAUR R/B 2.9 10:34:48 10° NW 10:38:27 71° NE 10:47:42 10° SE
Cosmos 1455 2.8 10:35:37 10° NNW 10:38:41 40° WNW 10:38:41 40° WNW
CRYOSAT 2 4.3 10:36:37 10° N 10:41:31 75° W 10:43:23 38° SSW
Cosmos 2285 Rocket 4.3 10:35:57 10° NNW 10:42:18 68° ENE 10:48:35 10° SSE
Cosmos 1825 Rocket 4.1 10:43:59 37° W 10:44:26 38° W 10:48:29 10° N
Cosmos 1980 Rocket 2.4 10:42:35 28° S 10:45:34 65° ESE 10:51:08 10° NNE
CZ-2D R/B 3.9 10:44:39 10° NNE 10:48:45 58° E 10:51:00 25° S
Cosmos 2219 3.5 10:43:56 10° NW 10:49:15 43° WSW 10:51:18 31° SSW
ERS-1 4.5 10:47:06 10° N 10:52:17 81° WNW 10:55:02 29° SSW
Cosmos 540 Rocket 3.4 10:51:33 33° SSW 10:53:52 77° WNW 10:59:01 10° NNE
STARLINK-1212 2.6 10:51:28 10° NW 10:54:34 82° SW 10:57:39 10° SE
Alouette 2 Rocket 4.2 10:49:30 10° NNW 10:54:38 39° W 10:55:34 34° WSW
STARLINK-1105 2.6 10:51:55 10° NW 10:55:00 81° SW 10:58:05 10° SE
Cosmos 1400 Rocket 3.1 10:51:23 10° N 10:55:30 69° E 10:59:03 14° SSE
STARLINK-1247 2.7 10:52:50 10° NW 10:55:57 79° SW 10:59:03 10° SE
STARLINK-1227 2.6 10:53:17 10° NW 10:56:23 78° SW 10:59:27 10° SE
STARLINK-1226 2.6 10:54:08 10° NW 10:57:15 76° SW 11:00:20 10° SE
IRS-1C 4.3 10:52:04 10° N 10:57:16 55° WNW 10:59:50 29° SW
STARLINK-1215 2.7 10:55:06 10° NW 10:58:12 74° SW 11:01:18 10° SE
BREEZE-M DEB (TANK) 3.6 10:56:04 31° WSW 10:58:20 85° NW 11:12:48 10° NE
STARLINK-1217 2.7 10:56:52 10° NW 10:59:58 70° SW 11:03:03 10° SE
GP-B 4.2 10:56:26 10° NNW 11:00:07 26° W 11:00:48 25° W
Cosmos-2242 3.5 10:56:32 10° NNW 11:00:29 38° W 11:01:23 33° WSW
STARLINK-1229 2.7 10:57:47 10° NW 11:00:53 68° SW 11:03:59 10° SE
Cosmos 990 Rocket 4.2 10:56:01 10° NNW 11:01:05 50° WSW 11:04:22 21° S
STARLINK-1270 2.7 10:58:39 10° NW 11:01:45 66° SW 11:04:50 10° SE
Cosmos 2221 3.9 10:58:29 10° N 11:02:32 38° E 11:06:35 10° SSE
STARLINK-1189 2.7 11:00:30 10° NW 11:03:35 63° SW 11:06:39 10° SE
Cosmos 2297 Rocket 2.6 10:58:57 10° NW 11:04:12 41° WSW 11:07:33 20° SSW
STARLINK-1188 2.7 11:01:24 10° NW 11:04:29 61° SW 11:07:33 10° SE
STARLINK-1187 3.3 11:06:08 41° S 11:06:08 41° S 11:08:32 10° SSE
STARLINK-1191 2.8 11:03:53 10° NW 11:06:55 56° SW 11:09:57 10° SSE
STARLINK-1254 4.5 11:03:12 10° NW 11:07:16 52° NE 11:11:18 10° ESE
Cosmos 841 Rocket 3.8 11:04:57 27° SW 11:07:33 52° WNW 11:12:40 10° N
STARLINK-1221 2.8 11:04:43 10° NW 11:07:46 55° SW 11:10:48 10° SSE
Cosmos 2082 3.6 11:02:41 10° NNW 11:08:21 81° WSW 11:13:57 10° SSE
STARLINK 1040 2.4 11:08:24 57° S 11:08:39 63° SE 11:11:13 10° NE
STARLINK-1222 2.8 11:05:39 10° NW 11:08:41 53° SW 11:11:42 10° SSE
Cosmos 2278 3.8 11:05:45 26° SW 11:08:58 64° WNW 11:14:36 10° NNE
COBE Rocket 3.8 11:04:21 11° S 11:09:07 80° W 11:14:08 10° NNW
STARLINK-1214 2.9 11:06:33 10° WNW 11:09:34 52° SW 11:12:35 10° SSE
SL-08 R/B 3.5 11:09:03 20° S 11:12:08 51° W 11:16:41 10° NNW
STARLINK-1231 4.3 11:08:11 10° NW 11:12:16 57° NE 11:16:21 10° ESE
Cosmos 1315 Rocket 4.2 11:12:16 10° N 11:15:55 37° ENE 11:19:34 10° SSE
CZ-2C R/B 2.7 11:12:41 10° NNE 11:16:25 79° ESE 11:19:08 18° S
Cosmos 2322 Rocket 4.1 11:12:02 10° SSE 11:16:36 26° ESE 11:21:09 10° NE
STARLINK-1232 4.1 11:13:09 10° NW 11:17:16 63° NE 11:21:22 10° ESE
Cosmos 2263 Rocket 4.4 11:14:32 10° N 11:19:17 27° ENE 11:23:59 10° ESE
USA 129 3.7 11:20:23 10° NNE 11:20:52 16° NNE 11:20:52 16° NNE
STARLINK-1208 3.9 11:18:05 10° NW 11:22:13 70° NE 11:26:21 10° SE
H-2A R/B 2.0 11:19:29 10° S 11:23:43 75° WSW 11:28:06 10° NNW
STARLINK-26 3.9 11:24:02 21° SSW 11:26:00 44° SE 11:29:17 10° ENE
SL-16 R/B 4.2 11:26:33 12° W 11:27:11 12° W 11:29:26 10° WNW
STARLINK-1271 3.7 11:23:04 10° NW 11:27:13 78° NE 11:31:21 10° SE
Cosmos 2058 3.1 11:26:21 10° S 11:30:28 72° E 11:34:40 10° NNE
deb Chang Zheng 4 4.2 11:26:31 10° NNE 11:30:45 54° E 11:34:57 10° S
STARLINK-1154 3.6 11:28:03 10° NW 11:32:13 86° NE 11:36:21 10° SE
Lacrosse 4 Rocket 1.4 11:28:53 10° NNW 11:33:12 89° WSW 11:37:22 10° SSE
STARLINK-42 3.7 11:33:36 17° SSW 11:35:43 43° SE 11:38:47 10° ENE
Cosmos 1408 4.0 11:32:45 10° SSE 11:36:13 39° E 11:39:42 10° NNE
ADEOS II 3.7 11:33:02 10° NNW 11:36:43 20° WNW 11:39:46 12° WSW
Cosmos 2150 Rocket 4.2 11:31:51 10° NNW 11:37:01 73° ENE 11:42:08 10° SSE
STARLINK-1197 3.5 11:33:01 10° NW 11:37:11 86° SW 11:41:19 10° SE
Cosmos 1697 Rocket 4.1 11:33:38 14° WSW 11:37:16 24° WNW 11:41:51 10° N
CZ-4B R/B 3.4 11:35:34 10° SE 11:38:15 29° ENE 11:40:56 10° NNE
Cosmos 2227 Rocket 3.3 11:35:16 10° NW 11:39:38 23° W 11:43:48 11° SSW
SJ 16-02 3.2 11:38:07 10° WNW 11:40:12 13° W 11:40:46 13° WSW
STARLINK-1283 4.1 11:38:26 14° SSW 11:41:23 44° SE 11:44:54 10° ENE
USA 234 3.3 11:35:11 10° NE 11:41:44 78° NW 11:47:52 12° SW
STARLINK-1198 3.5 11:37:58 10° NW 11:42:07 77° SW 11:46:15 10° SE
SL-24 DEB 4.2 11:38:22 10° N 11:42:57 65° W 11:47:29 10° SSW
Iridium 2 4.4 11:39:56 10° NNW 11:43:19 32° W 11:46:21 12° SSW
SL-16 R/B 2.8 11:37:56 10° S 11:43:27 56° ESE 11:49:00 10° NNE
ARIANE 5 R/B 3.8 11:41:22 10° NNW 11:45:24 25° WNW 11:48:57 12° WSW
STARLINK-43 4.0 11:43:36 14° WSW 11:46:28 43° NW 11:50:00 10° NE
STARLINK-1199 3.5 11:43:00 10° NW 11:47:07 69° SW 11:51:13 10° SE
STARLINK-1316 4.1 11:44:52 11° SSW 11:47:32 34° SE 11:50:24 10° ENE
STARLINK-1257 4.0 11:45:43 11° SSW 11:48:24 35° SE 11:51:17 10° ENE
ERS-2 3.4 11:46:41 13° SW 11:48:52 22° W 11:51:45 10° NW
STARLINK-1256 4.0 11:46:37 11° SSW 11:49:20 36° SE 11:52:14 10° ENE
STARLINK-1213 4.0 11:47:27 11° SSW 11:50:11 37° SE 11:53:06 10° ENE
STARLINK-1263 3.9 11:48:19 11° SSW 11:51:05 38° SE 11:54:00 10° ENE
STARLINK-1259 3.9 11:49:11 11° SSW 11:51:59 39° SE 11:54:55 10° ENE
STARLINK-1210 3.6 11:47:59 10° NW 11:52:05 62° SW 11:56:10 10° SE
Cosmos 1842 Rocket 4.0 11:47:52 10° NNW 11:52:05 42° W 11:56:17 10° SSW
Cosmos 1825 3.5 11:49:00 10° SSE 11:52:33 41° E 11:56:06 10° NNE
STARLINK-1265 3.8 11:49:44 11° SSW 11:52:33 39° SE 11:55:30 10° ENE
STARLINK-55 2.9 11:49:58 14° SW 11:52:39 87° SE 11:55:51 10° NE
STARLINK-1285 3.8 11:50:02 11° SSW 11:52:52 40° SE 11:55:49 10° ENE
STARLINK-1296 3.7 11:51:46 10° SSW 11:54:39 42° SE 11:57:37 10° ENE
STARLINK-1260 3.7 11:52:38 10° SSW 11:55:34 43° SE 11:58:33 10° ENE
STARLINK-1268 3.7 11:53:07 10° SSW 11:56:03 44° SE 11:59:01 10° ENE
STARLINK-1318 3.7 11:53:30 10° SSW 11:56:28 44° SE 11:59:27 10° ENE
BREEZE-M TANK 4.4 11:55:11 10° S 11:57:29 16° SE 11:59:27 10° E
